Other Public Products
Issued by NWS Grand Forks, ND

Home | Current Version | Previous Version | Graphics & Text | Print | Product List | Glossary On
Versions: 1 2 3 4 5 6 7 8 9 10 11 12 13 14 15 16 17 18 19 20 21 22 23 24 25 26 27 28 29 30 31 32 33 34 35 36 37 38 39 40 41 42 43 44 45 46 47 48 49 50
000
FPUS83 KFGF 240131
OPUFGF
PRAIRIE TO PINES WEATHER ROUNDUP
NATIONAL WEATHER SERVICE EASTERN NORTH DAKOTA/GRAND FORKS ND
800 PM CDT SAT SEP 23 2017

 **SATELLITE DATA USED TO AUGMENT SKY COVER AT AUTOMATED STATIONS**
 *****  WEATHER ACROSS EASTERN NORTH DAKOTA  *****

CITY           SKY/WX    TMP DP  RH WIND       PRES   REMARKS
GRAND FORKS    CLOUDY    59  50  72 N12       30.05S
GRAND FORKS AF CLOUDY    57  48  71 N9        30.06F
GRAND CITY NWS NOT AVBL
BUXTON           N/A     58  51  76 N8          N/A
DEVILS LAKE    CLOUDY    52  45  77 NE13      30.10S
FARGO          LGT RAIN  58  52  80 NE8       30.03R
WAHPETON ARPT  CLOUDY    55  52  88 NE5       30.01R
$$

 *****  WEATHER ACROSS CENTRAL AND WESTERN NORTH DAKOTA  *****

CITY           SKY/WX    TMP DP  RH WIND       PRES   REMARKS
JAMESTOWN      LGT RAIN  54  50  86 NE6       30.02F
BISMARCK       LGT RAIN  53  47  79 NE10      30.05R
MINOT          CLOUDY    51  44  77 NW8       30.10S
MINOT AFB      CLOUDY    51  43  72 N8        30.10R
GARRISON         N/A     48  45  89 N8        30.10R
WILLISTON      LGT RAIN  47  43  86 E7        30.13R
DICKINSON      RAIN      45  44  97 N12       30.06F FOG
HETTINGER      LGT RAIN  45  42  89 N12       30.06F FOG
$$

 *****  OTHER OBSERVATIONS NORTHEAST NORTH DAKOTA  *****

CITY           SKY/WX    TMP DP  RH WIND       PRES   REMARKS
WALHALLA       FAIR     N/A N/A N/A N7        30.11R
LANGDON        CLOUDY    52  50  93 NE12      30.11S
CAVALIER       MOCLDY    54  48  82 NW6       30.11R
GRAFTON        CLOUDY    55  48  76 N15       30.09F
CANDO          CLOUDY    52  48  87 NE7       30.12S
FORT TOTTEN      N/A     53  46  77 NE6       29.95S
ROLLA          CLOUDY    48  46  93 NE6       30.12R
RUGBY          CLOUDY    50  45  81 NE7       30.09F
 ***** THE ABOVE OBSERVATIONS ARE NON NWS ARE NOT QUALITY
        CONTROLLED AND MAY MIS-REPORT RAIN FOR SNOW...
$$

 *****  OTHER OBSERVATIONS SOUTHEAST NORTH DAKOTA *****

CITY           SKY/WX    TMP DP  RH WIND       PRES   REMARKS
COOPERSTOWN    DRIZZLE   55  50  82 N15       30.02F
VALLEY CITY    LGT RAIN  54  54 100 NE10G16   30.04F
OAKES          NOT AVBL
GWINNER        CLOUDY    54  54 100 NE6       30.02R FOG
SHEYENNE NWR     N/A     55  55  99 NE7       29.95S
BUFFALO          N/A     55  50  81 W6          N/A
WYNDMERE       NOT AVBL
 ***** THE ABOVE OBSERVATIONS ARE NON NWS ARE NOT QUALITY
       CONTROLLED AND MAY MIS-REPORT RAIN FOR SNOW...
$$

  *****  WEATHER ACROSS NORTHERN MINNESOTA  *****

CITY           SKY/WX    TMP DP  RH WIND       PRES   REMARKS
FLAG ISLAND    CLOUDY    55  52  88 N8        30.07R
WARROAD        CLOUDY    55  52  88 CALM      30.08S
ROSEAU           N/A     57  52  82 N6        30.07F
HALLOCK          N/A     57  48  72 N7        30.08S
THF RVR FALLS  CLOUDY    57  51  80 N8        30.07R
HALSTAD          N/A     58  52  79 E6          N/A
FOSSTON        CLOUDY    54  54 100 N8        30.02F
BAUDETTE       CLOUDY    56  53  90 N6        30.07S
WASKISH        CLOUDY    55  54  94 N3        30.06S
CROOKSTON      CLOUDY    59  52  77 N8        30.03F
$$
  *****  WEATHER ACROSS CENTRAL AND WEST MINNESOTA  *****

CITY           SKY/WX    TMP DP  RH WIND       PRES   REMARKS
BEMIDJI        CLOUDY    54  52  94 NE5       30.04S
PARK RAPIDS    CLOUDY    57  54  89 NE8       30.01F
WADENA         CLOUDY    55  55 100 E9        30.00R
DETROIT LAKES  CLOUDY    54  54 100 CALM      30.04R
MOORHEAD       LGT RAIN  55  52  88 N12       30.02F
FERGUS FALLS   CLOUDY    55  55 100 NE8       29.99F
ELBOW LAKE     CLOUDY    57  57  99 E7        29.99S
MORRIS MN      NOT AVBL
STAPLES        LGT RAIN  55  55 100 E7        29.98F
WHEATON        CLOUDY    55  54  94 N6        30.01R
$$
  *****  WEATHER ELSEWHERE ACROSS MINNESOTA  *****

CITY           SKY/WX    TMP DP  RH WIND       PRES   REMARKS
DULUTH         MOCLDY    69  69 100 N7        29.99R
INTRNTL FALLS  CLOUDY    56  54  93 N6        30.05R
ELY            CLOUDY    63  61  94 N3        30.02S
CLOQUET        FAIR      70  64  83 N9        29.99R
BRAINERD       LGT RAIN  60  58  92 N7        30.02S
HIBBING        CLOUDY    61  57  87 N9        30.01S
ALEXANDRIA     LGT RAIN  58  57  97 N6        29.99R
SAINT CLOUD    TSTM      66  66 100 W17G32    29.99R FOG
MINNEAPOLIS    CLOUDY    83  71  67 SE7       29.91S
$$

  *****  WEATHER ACROSS SOUTH DAKOTA  *****

CITY           SKY/WX    TMP DP  RH WIND       PRES   REMARKS
SIOUX FALLS    CLOUDY    67  64  90 E12       29.87S
BROOKINGS      CLOUDY    55  55 100 NE8       29.92S
WATERTOWN      TSTM      53  53 100 N16       29.96R
HURON          LGT RAIN  55  55 100 NE10      29.92S
SISSETON         N/A     56  54  93 N7        29.99S
ABERDEEN       LGT RAIN  53  53 100 NE13G22   29.93F
MITCHELL       RAIN      58  57  97 N5        29.94R FOG
PIERRE         LGT RAIN  51  49  92 NE5       29.98R
MOBRIDGE       CLOUDY    54  52  93 NE6       29.98R
RAPID CITY     LGT RAIN  46  45  93 N10       30.05R FOG
$$

  *****  SOME WEATHER IN NEARBY STATES *****

CITY           SKY/WX    TMP DP  RH WIND       PRES   REMARKS
GLASGOW MT     CLOUDY    49  37  63 SE5       30.12S
GREAT FALLS MT MOCLDY    50  29  44 CALM      30.08R
CHEYENNE WY    LGT RAIN  42  40  92 NE10      30.00S FOG
SCOTTSBLUFF NE LGT RAIN  46  43  89 NE8       30.00F
OMAHA NE       MOCLDY    85  62  46 SE13      29.89S
DES MOINES IA  MOCLDY    84  64  50 SE9       29.95R
DAVENPORT IA   FAIR      76  65  68 SE6       30.02R
CHICAGO IL     FAIR      83  65  54 SE7       30.04R
EAU CLAIRE WI  FAIR      79  67  66 S3        29.96R
LA CROSSE WI   FAIR      82  65  56 S6        29.96R
$$

  *****  SOME NATIONAL WEATHER *****

CITY           SKY/WX    TMP DP  RH WIND       PRES   REMARKS
LA GUARDIA NY  FAIR      80  54  40 N3        30.02S
RALEIGH NC     MOCLDY    75  61  61 E6        30.07R
ATLANTA GA     FAIR      79  65  62 SE3       30.03R
NEW ORLEANS LA FAIR      82  69  64 E7        29.92R
OKLAHOMA CITY  FAIR      76  63  64 SE7       29.90S
ALBUQUERQUE NM MOCLDY    70  44  39 NW13      29.81R
SALT LAKE CITY LGT RAIN  50  42  74 N5        29.94R
LOS ANGELES CA FAIR      67  60  78 W16       29.84R
BOISE ID       FAIR      59  34  39 W12       30.01S
SEATTLE WA     FAIR      67  49  52 W5        30.09S
$$

*** WEATHER ACROSS MANITOBA...SASKATCHEWAN AND ONTARIO ***
                ***ONTARIO***

CITY           SKY/WX    TMP DP  RH WIND       PRES   REMARKS
GERALDTON      CLOUDY    70  66  88 NW8       29.99R
THUNDER BAY    MOCLDY    72  64  78 NW3       29.96S
SIOUX LOOKOUT  CLOUDY    55  54  94 NW3       30.03S
TORONTO        CLEAR     82  64  54 VRB2      30.08R
BIG TROUT LK   LGT RAIN  46  46 100 N5        30.11R FOG
PICKLE LAKE    DRIZZLE   55  55 100 NE3       30.03R FOG
DRYDEN         CLOUDY    55  54  94 NW3       30.05R
KENORA         CLOUDY    52  52 100 N8        30.07R
$$
                *** MANITOBA***

CITY           SKY/WX    TMP DP  RH WIND       PRES   REMARKS
BRANDON        CLOUDY    52  45  76 E6        30.14R
DAUPHIN        CLOUDY    50  46  87 CALM      30.15R FOG
ISLAND LAKE    CLOUDY    48  43  81 N8        30.15
PILOT MOUND      N/A     50  45  81 N7          N/A
THE PAS        MOCLDY    48  45  87 E5        30.15F
THOMPSON       CLOUDY    41  37  87 NE7       30.22S
WINNIPEG       MOCLDY    54  48  82 NE8       30.11R
LYNN LAKE      CLOUDY    41  37  87 E6        30.20S
CHURCHILL      MOCLDY    39  36  87 NE8       30.25S
GILLAM         CLOUDY    41  37  87 NE7       30.23R
$$
                ***SASKATCHEWAN***

CITY           SKY/WX    TMP DP  RH WIND       PRES   REMARKS
ESTEVAN        CLOUDY    46  39  76 N3        30.14R
KINDERSLEY     CLOUDY    48  39  71 E6        30.10S
LLOYDMINSTER   MOCLDY    45  37  76 SE5       30.10S
PRINCE ALBERT  MOCLDY    48  39  71 NW2       30.15S
REGINA         MOCLDY    46  36  66 E5        30.14S
YORKTON        CLOUDY    48  39  71 CALM      30.15R



USA.gov is the U.S. government's official web portal to all federal, state and local government web resources and services.